Weather History for Kahului, HI

Change the Weather History Date:

Saturday, November 10, 2012

  Actual Average Record
Temperature  
Mean Temperature 77 °F 77 °F  
Max Temperature 84 °F 85 °F 90 °F (1968)
Min Temperature 70 °F 69 °F 61 °F (1969)
Degree Days  
Heating Degree Days 0 0  
Month to date heating degree days 0 0  
Since 1 July heating degree days 0 0  
Cooling Degree Days 12 12  
Month to date cooling degree days 106 120  
Year to date cooling degree days 3448 3496  
Growing Degree Days 26 (Base 50)    
Moisture  
Dew Point 69 °F    
Average Humidity 79    
Maximum Humidity 100    
Minimum Humidity 58    
Precipitation  
Precipitation 0.03 in 0.07 in 3.55 in (2013)
Month to date precipitation 0.05 0.59  
Year to date precipitation 4.76 12.87  
Snow  
Snow 0.00 in - - ()
Month to date snowfall 0.0  
Since 1 July snowfall 0.0  
Since 1 September snowfall 0.0  
Snow Depth 0.00 in    
Sea Level Pressure  
Sea Level Pressure 30.05 in    
Wind  
Wind Speed 13 mph (NE)    
Max Wind Speed 29 mph    
Max Gust Speed 39 mph    
Visibility 10 miles    
Events Rain    
T = Trace of Precipitation, MM = Missing Value Source: NWS Daily Summary

Daily Weather History Graph

Daily Weather History Graph

Search for Another Location

Airport:

Trip Planner

Search our weather history database for the weather conditions in past years. The results will help you decide how hot, cold, wet, or windy it might be!

Date:

Astronomy

Nov. 10, 2012 Rise Set
Actual Time 6:33 AM HST 5:45 PM HST
Civil Twilight 6:10 AM HST 6:08 PM HST
Nautical Twilight 5:43 AM HST 6:35 PM HST
Astronomical Twilight 5:17 AM HST 7:02 PM HST
Moon 3:14 AM HST (11/10) 3:20 PM HST (11/10)
Length of Visible Light 11h 58m
Length of Day
11h 12m
Waning Crescent, 13% of the Moon is Illuminated
Nov 10
Waning Crescent
Nov 13
New
Nov 20
First Quarter
Nov 28
Full
Dec 6
Last Quarter

Hourly Weather History & Observations

Time (HST) Temp. Heat Index Dew Point Humidity Pressure Visibility Wind Dir Wind Speed Gust Speed Precip Events Conditions
12:54 AM 72.0 °F - 70.0 °F 93% 30.09 in 10.0 mi NE 6.9 mph - N/A   Clear
1:54 AM 72.0 °F - 69.1 °F 91% 30.07 in 10.0 mi NE 8.1 mph - N/A   Partly Cloudy
2:54 AM 70.0 °F - 70.0 °F 100% 30.05 in 10.0 mi NE 4.6 mph - 0.01 in   Partly Cloudy
3:54 AM - - - N/A% 30.05 in 10.0 mi NE 9.2 mph - 0.00 in   Partly Cloudy
4:54 AM - - - N/A% 30.05 in 10.0 mi NE 8.1 mph - 0.00 in   Clear
5:54 AM 72.0 °F - 70.0 °F 93% 30.06 in 10.0 mi NE 11.5 mph - N/A   Partly Cloudy
6:54 AM 71.6 °F - 66.2 °F 83% 30.08 in 10.0 mi NE 6.9 mph - N/A   Clear
7:54 AM 71.6 °F - 66.2 °F 83% 30.09 in 10.0 mi NE 8.1 mph - 0.00 in   Scattered Clouds
8:54 AM 75.9 °F - 72.0 °F 87% 30.10 in 10.0 mi NE 10.4 mph - 0.01 in   Scattered Clouds
9:54 AM 79.0 °F - 68.0 °F 69% 30.09 in 10.0 mi ENE 19.6 mph 24.2 mph 0.00 in   Scattered Clouds
10:54 AM 81.0 °F 84.1 °F 69.1 °F 67% 30.07 in 10.0 mi ENE 18.4 mph 25.3 mph N/A   Scattered Clouds
11:54 AM 82.0 °F 86.7 °F 72.0 °F 71% 30.05 in 10.0 mi ENE 20.7 mph 28.8 mph N/A   Partly Cloudy
12:54 PM 82.0 °F 85.5 °F 69.1 °F 65% 30.01 in 10.0 mi ENE 20.7 mph 32.2 mph N/A   Scattered Clouds
1:54 PM 81.0 °F 84.4 °F 70.0 °F 69% 29.98 in 10.0 mi ENE 25.3 mph 34.5 mph N/A   Scattered Clouds
2:54 PM 82.0 °F 84.5 °F 66.9 °F 60% 29.97 in 10.0 mi ENE 19.6 mph 33.4 mph N/A   Scattered Clouds
3:54 PM 80.1 °F 82.3 °F 66.9 °F 64% 29.98 in 10.0 mi ENE 23.0 mph 35.7 mph N/A   Scattered Clouds
4:54 PM 78.1 °F - 66.9 °F 68% 30.00 in 10.0 mi NE 21.9 mph 29.9 mph N/A   Partly Cloudy
5:54 PM 75.0 °F - 69.1 °F 82% 30.02 in 10.0 mi NE 13.8 mph 21.9 mph N/A   Partly Cloudy
6:54 PM 73.9 °F - 69.1 °F 85% 30.05 in 10.0 mi ENE 10.4 mph - 0.00 in Rain Light Rain
7:54 PM 73.0 °F - 69.1 °F 87% 30.07 in 10.0 mi NE 10.4 mph - 0.00 in   Partly Cloudy
8:54 PM 73.9 °F - 71.1 °F 91% 30.08 in 10.0 mi NE 10.4 mph - 0.00 in Rain Light Rain
9:54 PM 71.1 °F - 71.1 °F 100% 30.08 in 10.0 mi ENE 6.9 mph - 0.01 in   Partly Cloudy
10:54 PM 72.0 °F - 70.0 °F 93% 30.07 in 10.0 mi NE 8.1 mph - 0.00 in   Partly Cloudy
11:54 PM 72.0 °F - 70.0 °F 93% 30.06 in 10.0 mi NE 9.2 mph - 0.00 in   Mostly Cloudy